Location: Unspecified
(43.3830°N, 0.0000°E)
Time: 20:53:46
(UTC+00:00)

Explorer 7 - Pass Details

Date: 03 July 2019
Orbit: 485 x 680 km, 50.3° (Epoch: 16 July)

Event Time Altitude Azimuth Distance (km) Brightness Sun altitude
Rises 07:55:04 0° 291° (WNW) 2,717 9.9 35.4°
Reaches altitude 10° 07:57:25 10° 301° (WNW) 1,857 9.2 35.8°
Maximum altitude 08:01:17 33° 6° (N) 990 8.5 36.5°
Drops below altitude 10° 08:05:24 10° 72° (ENE) 1,971 10.8 37.3°
Sets 08:07:57 0° 82° (E) 2,911 11.4 37.7°
